{"data":{"norad_id":68930,"intl_designator":"2026-098M","name":"KUIPER-00415","alt_names":[],"object_type":"PAYLOAD","status":"ACTIVE","operator":null,"country":"US","launch_date":"2026-04-30","launch_site_code":"FRGUI","launch_vehicle":null,"mission":null,"orbit_class":"UNKNOWN","rcs_meters":null,"size_class":null,"mass_kg":null,"dimensions":null,"purposes":[],"wikipedia_slug":null,"has_3d_model":false,"image_url":null,"decayed_at":null,"tle_current":{"epoch":"2026-05-25T01:42:22.416192Z","epoch_age_seconds":59101,"freshness":"FRESH","line1":"1 68930U 26098M   26145.07109278 -.00008008  00000+0 -23469-3 0  9997","line2":"2 68930  51.8777 179.3314 0011112  56.3541 303.8502 15.33117811  3792","mean_motion":15.33117811,"eccentricity":0.0011112,"inclination_deg":51.8777,"raan_deg":179.3314,"arg_perigee_deg":56.3541,"mean_anomaly_deg":303.8502,"bstar":-0.00023469,"rev_number":379,"period_min":93.926245567569,"perigee_km":458.91105253242,"apogee_km":474.12261120837,"semimajor_km":6844.6538318704,"source":"CELESTRAK","updated_at":"2026-05-25T13:38:08.794744Z"}}}